DELTA 1 DEB, 42651

Orbit data source: Space-Track

DELTA 1 DEB, 42651 is space debris in SSO originally from a launch on Thu, 12 Jun 1975 UTC launched from the Air Force Western Test Range (AFWTR). Debris objects in space refer to the collection of defunct objects orbiting the Earth. Examples of debris include non-operational satellites, rocket bodies, and fragments generated from explosions, collisions, or faulty payload assembly.

Loading next visibility...
Identifier
42651, 1975-052ML
Orbit
SSO
Country
Flag of USUS
Related business
Manufacturer
Unknown
Mission
Spacecraft
Bus & Motor
Unknown
Mass
Unknown
Launch date (UTC)
1975-06-12 (51 years ago)
Launch vehicle
Unknown
Launch site
Air Force Western Test Range (AFWTR)
Object type
Payload
Rocket body
Debris
Shape & HBR
Unknown shape, 0.1 m
Radar Cross Section
Small (<0.1 m²)

Expand to show TLE details & history
Last TLE update: 3 weeks ago

TLE from 3 weeks ago
0 DELTA 1 DEB
1 42651U 75052ML  26151.61493351  .00003445  00000-0  54404-2 0  9999
2 42651  99.2988  80.5159 0148548 240.5662 244.1732 13.46187792569111
Epoch: 2026-05-31T14:45Z
TLE epoch observation values (Epoch: 2026-05-31T14:45:30.255Z)
Latitude
55.74367°
Longitude
163.86489°
Altitude
1,145.146 km
Speed
7.261 km/s
True Right ascension
18h 17m 25s
True Declination
55° 35' 30"
Sunlit
Object was in daylight at epoch
Visualization orbit readout
Latitude
Unknown
Longitude
Unknown
Altitude
Unknown
Speed
Unknown
Apparent Right ascension
Unknown
Apparent Declination
Unknown
Sunlit
N/A
Visualization observer readout
Local Sidereal Time
21:55:08
Azimuth
Unknown
Elevation
Unknown
Doppler factor
Unknown
Orbital elements
Apogee altitude
1,194.446 km
Perigee altitude
972.76 km
Semi-major axis
7,461.74 km
Eccentricity
0.01485
Inclination
99.2988°
RAAN
80.5159°
Arg. of periapsis
240.5662°
True anomaly
242.65347°
Mean anomaly
244.1732°
Eccentric anomaly
243.41209°
Mean motion
3.36731 °/min
Orbital period
106.91 mins
BSTAR
0.0054404
Loading maneuver chart data...
Computing Atmospheric mass density...
Loading historical data...
Loading historical data...
Loading historical data...
Loading historical data...
Loading historical data...
Loading historical data...
Loading historical data...

Documentation

Showing up to 5 results
|